Time[GMT],salinity[psu](20m),sigma_t[kg/m^3](20m),conductivity[msiemens/cm](20m),temperature[C](20m)
2020-09-16 02:00,32.370,24.489,37.580,12.31
2020-09-16 03:00,32.374,24.479,37.648,12.38
2020-09-16 04:00,32.273,24.321,37.912,12.80
2020-09-16 05:00,32.152,24.049,38.599,13.70
2020-09-16 06:00,32.144,23.933,39.076,14.23
2020-09-16 07:00,32.183,24.159,38.243,13.27
2020-09-16 08:00,32.194,24.159,38.293,13.31
2020-09-16 09:00,32.227,24.200,38.256,13.23
2020-09-16 10:00,32.163,24.013,38.810,13.92
2020-09-16 11:00,32.267,24.191,38.483,13.44
2020-09-16 12:00,32.220,24.138,38.509,13.52
2020-09-16 13:00,32.203,24.183,38.226,13.23
2020-09-16 14:00,32.295,24.365,37.810,12.66
2020-09-16 15:00,32.250,24.282,37.989,12.91
2020-09-16 16:00,32.213,24.240,38.011,12.98
2020-09-16 17:00,32.134,24.104,38.268,13.35
2020-09-16 18:00,32.252,24.280,38.009,12.93
2020-09-16 19:00,32.295,24.323,38.004,12.87
2020-09-16 20:00,32.175,24.029,38.793,13.89
2020-09-16 21:00,32.330,24.413,37.754,12.55
2020-09-16 22:00,32.410,24.513,37.655,12.35
2020-09-16 23:00,32.413,24.520,37.635,12.32
2020-09-17 00:00,32.406,24.516,37.618,12.31
2020-09-17 01:00,32.351,24.403,37.895,12.69
2020-09-17 02:00,32.308,24.399,37.711,12.53
2020-09-17 03:00,32.278,24.278,38.134,13.04
2020-09-17 04:00,32.266,24.324,37.868,12.75
2020-09-17 05:00,32.210,24.223,38.071,13.05
2020-09-17 06:00,32.218,24.036,38.956,14.01
2020-09-17 07:00,32.128,23.992,38.745,13.89
2020-09-17 08:00,32.376,24.442,37.828,12.58
2020-09-17 09:00,32.241,24.082,38.856,13.88
2020-09-17 10:00,32.076,24.037,38.305,13.46
2020-09-17 11:00,32.399,24.503,37.652,12.36
2020-09-17 12:00,32.415,24.528,37.608,12.29
2020-09-17 13:00,32.498,24.628,37.525,12.11
2020-09-17 14:00,32.519,24.689,37.328,11.86
2020-09-17 15:00,32.532,24.694,37.368,11.89
2020-09-17 16:00,32.473,24.639,37.348,11.94
2020-09-17 17:00,32.251,24.255,38.121,13.05
2020-09-17 18:00,32.412,24.503,37.713,12.41
2020-09-17 19:00,32.329,24.366,37.963,12.79
2020-09-17 20:00,32.362,24.450,37.725,12.48
2020-09-17 21:00,32.423,24.607,37.261,11.90
2020-09-17 22:00,32.356,24.466,37.621,12.38
2020-09-17 23:00,32.392,24.576,37.267,11.94
2020-09-18 00:00,32.292,24.335,37.937,12.80
2020-09-18 01:00,32.256,24.164,38.555,13.53
2020-09-18 02:00,32.247,24.069,38.942,13.96
2020-09-18 03:00,32.421,24.504,37.749,12.44
2020-09-18 04:00,32.263,24.311,37.917,12.81
2020-09-18 05:00,32.413,24.531,37.584,12.27
2020-09-18 06:00,32.447,24.584,37.489,12.12
2020-09-18 07:00,32.428,24.610,37.275,11.91
2020-09-18 08:00,32.472,24.682,37.135,11.70
2020-09-18 09:00,32.473,24.672,37.186,11.76
2020-09-18 10:00,32.347,24.419,37.805,12.59
2020-09-18 11:00,32.358,24.402,37.930,12.72
2020-09-18 12:00,32.421,24.600,37.289,11.93
2020-09-18 13:00,32.438,24.636,37.197,11.81
2020-09-18 14:00,32.374,24.517,37.466,12.18
2020-09-18 15:00,32.259,24.173,38.528,13.49
2020-09-18 16:00,32.342,24.376,37.978,12.79
2020-09-18 17:00,32.294,24.271,38.239,13.13
2020-09-18 18:00,32.170,23.907,39.308,14.46
2020-09-18 19:00,32.164,23.885,39.374,14.54
2020-09-18 20:00,32.136,23.875,39.295,14.49
2020-09-18 21:00,32.248,24.117,38.730,13.73
2020-09-18 22:00,32.349,24.309,38.323,13.16
2020-09-18 23:00,32.174,23.994,38.945,14.05
2020-09-19 00:00,32.204,24.121,38.516,13.55
2020-09-19 01:00,32.413,24.565,37.418,12.08
2020-09-19 02:00,32.283,24.340,37.871,12.74
2020-09-19 03:00,32.313,24.372,37.862,12.69
2020-09-19 04:00,32.397,24.528,37.517,12.21
2020-09-19 05:00,32.175,23.968,39.064,14.18
2020-09-19 06:00,32.111,23.895,39.094,14.29
2020-09-19 07:00,32.095,23.905,38.980,14.19
2020-09-19 08:00,32.092,23.924,38.885,14.09
2020-09-19 09:00,32.114,23.969,38.784,13.95
2020-09-19 10:00,32.078,23.952,38.699,13.90
2020-09-19 11:00,32.081,23.970,38.631,13.82
2020-09-19 12:00,32.093,23.988,38.608,13.78
2020-09-19 13:00,32.114,24.023,38.547,13.69
2020-09-19 14:00,32.109,24.044,38.428,13.56
2020-09-19 15:00,32.108,24.050,38.394,13.52
2020-09-19 16:00,32.107,24.025,38.505,13.65
2020-09-19 17:00,32.124,24.055,38.445,13.56
2020-09-19 18:00,32.135,24.078,38.392,13.49
2020-09-19 19:00,32.160,24.102,38.399,13.47
2020-09-19 20:00,32.152,24.094,38.399,13.48
2020-09-19 21:00,32.154,24.098,38.389,13.46
2020-09-19 22:00,32.150,24.093,38.393,13.47
2020-09-19 23:00,32.141,24.080,38.413,13.51
2020-09-20 00:00,32.146,24.087,38.403,13.49
2020-09-20 01:00,32.155,24.097,38.397,13.47
2020-09-20 02:00,32.327,24.334,38.104,12.95
2020-09-20 03:00,32.165,24.106,38.399,13.46
2020-09-20 04:00,32.176,24.109,38.439,13.49
2020-09-20 05:00,32.141,24.040,38.592,13.70
2020-09-20 06:00,32.200,24.140,38.410,13.43
2020-09-20 07:00,32.156,24.065,38.545,13.63
2020-09-20 08:00,32.335,24.337,38.129,12.96
2020-09-20 09:00,32.152,24.057,38.566,13.66
2020-09-20 10:00,32.156,24.058,38.577,13.67
2020-09-20 11:00,32.172,24.081,38.550,13.62
2020-09-20 12:00,32.152,24.054,38.576,13.67
2020-09-20 13:00,32.183,24.149,38.291,13.32
2020-09-20 14:00,32.253,24.251,38.142,13.07
2020-09-20 15:00,32.213,24.183,38.277,13.27
2020-09-20 16:00,32.203,24.147,38.391,13.41
2020-09-20 17:00,32.192,24.135,38.394,13.42
2020-09-20 18:00,32.196,24.144,38.370,13.39
2020-09-20 19:00,32.205,24.160,38.342,13.35
2020-09-20 20:00,32.204,24.150,38.382,13.40
2020-09-20 21:00,32.215,24.172,38.329,13.33
2020-09-20 22:00,32.229,24.214,38.202,13.17
2020-09-20 23:00,32.236,24.233,38.151,13.10
2020-09-21 00:00,32.479,24.626,37.436,12.03
2020-09-21 01:00,32.271,24.330,37.862,12.74
2020-09-21 02:00,32.361,24.438,37.777,12.54
2020-09-21 03:00,32.326,24.348,38.035,12.87
2020-09-21 04:00,32.279,24.289,38.090,12.99
2020-09-21 05:00,32.334,24.425,37.712,12.50
2020-09-21 06:00,32.252,24.243,38.177,13.11
2020-09-21 07:00,32.262,24.227,38.294,13.23
2020-09-21 08:00,32.254,24.217,38.303,13.25
2020-09-21 09:00,32.247,24.216,38.279,13.23
2020-09-21 10:00,32.225,24.191,38.291,13.27
2020-09-21 11:00,32.236,24.212,38.245,13.21
2020-09-21 12:00,32.234,24.210,38.247,13.21
2020-09-21 13:00,32.236,24.209,38.261,13.23
2020-09-21 14:00,32.295,24.303,38.099,12.98
2020-09-21 15:00,32.323,24.309,38.200,13.06
2020-09-21 16:00,32.266,24.233,38.289,13.22
2020-09-21 17:00,32.310,24.232,38.496,13.40
2020-09-21 18:00,32.343,24.215,38.722,13.61
2020-09-21 19:00,32.382,24.276,38.623,13.45
2020-09-21 20:00,32.401,24.287,38.660,13.47
2020-09-21 21:00,32.429,24.287,38.792,13.58
2020-09-21 22:00,32.434,24.284,38.827,13.62
2020-09-21 23:00,32.402,24.257,38.802,13.63
2020-09-22 00:00,32.453,24.328,38.714,13.47
2020-09-22 01:00,32.438,24.331,38.633,13.40
2020-09-22 02:00,32.418,24.313,38.621,13.41
2020-09-22 03:00,32.445,24.356,38.549,13.30
2020-09-22 04:00,32.448,24.338,38.645,13.40
2020-09-22 05:00,32.451,24.332,38.684,13.44
2020-09-22 06:00,32.451,24.320,38.741,13.50
2020-09-22 07:00,32.452,24.325,38.721,13.48
2020-09-22 08:00,32.462,24.331,38.742,13.49
2020-09-22 09:00,32.444,24.316,38.728,13.50
2020-09-22 10:00,32.453,24.342,38.649,13.40
2020-09-22 11:00,32.437,24.352,38.532,13.29
2020-09-22 12:00,32.488,24.435,38.383,13.06
2020-09-22 13:00,32.447,24.360,38.541,13.29
2020-09-22 14:00,32.461,24.370,38.558,13.29
2020-09-22 15:00,32.461,24.372,38.551,13.28
2020-09-22 16:00,32.490,24.477,38.202,12.86
2020-09-22 17:00,32.490,24.463,38.263,12.93
2020-09-22 18:00,32.385,24.413,38.005,12.77
2020-09-22 19:00,32.368,24.181,38.990,13.87
2020-09-22 20:00,32.433,24.317,38.673,13.45
2020-09-22 21:00,32.388,24.268,38.689,13.52
2020-09-22 22:00,32.399,24.287,38.652,13.46
2020-09-22 23:00,32.418,24.345,38.476,13.25
2020-09-23 00:00,32.421,24.350,38.467,13.24
2020-09-23 01:00,32.427,24.363,38.435,13.19
2020-09-23 02:00,32.429,24.368,38.418,13.17
2020-09-23 03:00,32.427,24.370,38.405,13.16
2020-09-23 04:00,32.430,24.377,38.383,13.13
2020-09-23 05:00,32.426,24.375,38.376,13.13
2020-09-23 06:00,32.426,24.391,38.301,13.05
2020-09-23 07:00,32.429,24.396,38.291,13.03
2020-09-23 08:00,32.425,24.395,38.278,13.02
2020-09-23 09:00,32.444,24.408,38.305,13.03
2020-09-23 10:00,32.443,24.398,38.346,13.08
2020-09-23 11:00,32.439,24.382,38.402,13.14
2020-09-23 12:00,32.437,24.374,38.429,13.17
2020-09-23 13:00,32.439,24.374,38.435,13.18
2020-09-23 14:00,32.450,24.417,38.291,13.01
2020-09-23 15:00,32.457,24.416,38.326,13.04
2020-09-23 16:00,32.444,24.423,38.238,12.96
2020-09-23 17:00,32.445,24.435,38.186,12.90
2020-09-23 18:00,32.448,24.440,38.174,12.88
2020-09-23 19:00,32.456,24.451,38.165,12.86
2020-09-23 20:00,32.409,24.415,38.110,12.86
2020-09-23 21:00,32.408,24.419,38.090,12.83
2020-09-23 22:00,32.404,24.418,38.072,12.82
2020-09-23 23:00,32.391,24.412,38.041,12.80
2020-09-24 00:00,32.391,24.414,38.032,12.79
2020-09-24 01:00,32.395,24.420,38.020,12.77
2020-09-24 02:00,32.396,24.420,38.022,12.77
2020-09-24 03:00,32.396,24.419,38.028,12.78
2020-09-24 04:00,32.399,24.421,38.037,12.79
2020-09-24 05:00,32.401,24.421,38.042,12.79
2020-09-24 06:00,32.405,24.423,38.056,12.80
2020-09-24 07:00,32.407,24.423,38.063,12.81
2020-09-24 08:00,32.435,24.440,38.115,12.83
2020-09-24 09:00,32.463,24.462,38.147,12.83
2020-09-24 10:00,32.499,24.480,38.227,12.88
2020-09-24 11:00,32.561,24.542,38.229,12.81
2020-09-24 12:00,32.517,24.478,38.319,12.96
2020-09-24 13:00,32.569,24.562,38.174,12.74
2020-09-24 14:00,32.587,24.569,38.225,12.78
2020-09-24 15:00,32.543,24.537,38.169,12.76
2020-09-24 16:00,32.566,24.572,38.111,12.67
2020-09-24 17:00,32.556,24.536,38.234,12.82
2020-09-24 18:00,32.597,24.565,38.288,12.83
2020-09-24 19:00,32.594,24.568,38.259,12.81
2020-09-24 20:00,32.647,24.622,38.253,12.74
2020-09-24 21:00,32.655,24.630,38.256,12.73
2020-09-24 22:00,32.534,24.519,38.209,12.82
2020-09-24 23:00,32.535,24.527,38.174,12.78
2020-09-25 00:00,32.585,24.592,38.102,12.64
2020-09-25 01:00,32.590,24.600,38.089,12.62
2020-09-25 02:00,32.572,24.580,38.100,12.66
2020-09-25 03:00,32.560,24.568,38.105,12.67
2020-09-25 04:00,32.569,24.576,38.108,12.67
2020-09-25 05:00,32.569,24.583,38.074,12.63
2020-09-25 06:00,32.579,24.599,38.042,12.58
2020-09-25 07:00,32.586,24.609,38.032,12.56
2020-09-25 08:00,32.563,24.581,38.054,12.61
2020-09-25 09:00,32.559,24.599,37.951,12.51
2020-09-25 10:00,32.556,24.598,37.941,12.50
2020-09-25 11:00,32.522,24.574,37.891,12.48
2020-09-25 12:00,32.498,24.551,37.889,12.51
2020-09-25 13:00,32.495,24.550,37.879,12.50
2020-09-25 14:00,32.493,24.548,37.880,12.50
2020-09-25 15:00,32.501,24.553,37.891,12.51
2020-09-25 16:00,32.493,24.544,37.898,12.52
2020-09-25 17:00,32.516,24.564,37.914,12.51
2020-09-25 18:00,32.517,24.564,37.914,12.51
2020-09-25 19:00,32.520,24.568,37.910,12.51
2020-09-25 20:00,32.576,24.610,37.976,12.51
2020-09-25 21:00,32.533,24.578,37.927,12.51
2020-09-25 22:00,32.514,24.564,37.905,12.51
2020-09-25 23:00,32.508,24.562,37.886,12.49
2020-09-26 00:00,32.498,24.561,37.846,12.46
2020-09-26 01:00,32.495,24.542,37.919,12.54
2020-09-26 02:00,32.478,24.511,37.983,12.64
2020-09-26 03:00,32.446,24.477,37.996,12.69
2020-09-26 04:00,32.473,24.519,37.922,12.57
2020-09-26 05:00,32.500,24.535,37.974,12.60
2020-09-26 06:00,32.459,24.491,37.990,12.67
2020-09-26 07:00,32.464,24.498,37.980,12.65
2020-09-26 08:00,32.485,24.531,37.921,12.56
2020-09-26 09:00,32.576,24.599,38.031,12.58
2020-09-26 10:00,32.602,24.616,38.074,12.59
2020-09-26 11:00,32.574,24.605,37.992,12.53
2020-09-26 12:00,32.486,24.531,37.926,12.56
2020-09-26 13:00,32.475,24.517,37.945,12.60
2020-09-26 14:00,32.482,24.486,38.121,12.78
2020-09-26 15:00,32.518,24.585,37.825,12.41
2020-09-26 16:00,32.500,24.560,37.853,12.47
2020-09-26 17:00,32.510,24.577,37.824,12.42
2020-09-26 18:00,32.536,24.592,37.875,12.45
2020-09-26 19:00,32.515,24.581,37.827,12.42
2020-09-26 20:00,32.535,24.598,37.841,12.41
2020-09-26 21:00,32.533,24.597,37.833,12.41
2020-09-26 22:00,32.537,24.598,37.850,12.42
2020-09-26 23:00,32.512,24.579,37.826,12.42
2020-09-27 00:00,32.500,24.545,37.926,12.55
2020-09-27 01:00,32.478,24.511,37.983,12.64
2020-09-27 02:00,32.435,24.450,38.072,12.78
2020-09-27 03:00,32.430,24.459,38.003,12.71
2020-09-27 04:00,32.461,24.477,38.065,12.74
2020-09-27 05:00,32.432,24.464,37.989,12.70
2020-09-27 06:00,32.469,24.478,38.097,12.77
2020-09-27 07:00,32.474,24.477,38.125,12.80
2020-09-27 08:00,32.490,24.496,38.112,12.76
2020-09-27 09:00,32.485,24.489,38.117,12.78
2020-09-27 10:00,32.505,24.505,38.139,12.78
2020-09-27 11:00,32.478,24.466,38.199,12.87
2020-09-27 12:00,32.478,24.469,38.180,12.85
2020-09-27 13:00,32.473,24.464,38.183,12.86
2020-09-27 14:00,32.472,24.469,38.153,12.83
2020-09-27 15:00,32.469,24.462,38.172,12.85
2020-09-27 16:00,32.478,24.488,38.090,12.75
2020-09-27 17:00,32.470,24.464,38.168,12.85
2020-09-27 18:00,32.451,24.468,38.061,12.75
2020-09-27 19:00,32.461,24.504,37.937,12.60
2020-09-27 20:00,32.462,24.514,37.895,12.56
2020-09-27 21:00,32.474,24.528,37.884,12.53
2020-09-27 22:00,32.459,24.491,37.991,12.67
2020-09-27 23:00,32.508,24.547,37.957,12.57
2020-09-28 00:00,32.467,24.524,37.871,12.52
2020-09-28 01:00,32.446,24.495,37.909,12.59
2020-09-28 02:00,32.461,24.514,37.890,12.55
2020-09-28 03:00,32.461,24.497,37.969,12.64
2020-09-28 04:00,32.424,24.442,38.055,12.78
2020-09-28 05:00,32.420,24.388,38.287,13.04
2020-09-28 06:00,32.432,24.456,38.027,12.74
2020-09-28 07:00,32.443,24.463,38.046,12.74
2020-09-28 08:00,32.441,24.467,38.017,12.72
2020-09-28 09:00,32.495,24.525,37.998,12.63
2020-09-28 10:00,32.514,24.549,37.973,12.58
2020-09-28 11:00,32.542,24.574,37.990,12.57
2020-09-28 12:00,32.546,24.576,37.998,12.57
2020-09-28 13:00,32.526,24.560,37.981,12.58
2020-09-28 14:00,32.502,24.524,38.036,12.67
2020-09-28 15:00,32.494,24.523,38.002,12.64
2020-09-28 16:00,32.488,24.519,37.996,12.64
2020-09-28 17:00,32.518,24.532,38.072,12.69
2020-09-28 18:00,32.513,24.528,38.069,12.69
2020-09-28 19:00,32.519,24.533,38.072,12.69
2020-09-28 20:00,32.532,24.548,38.063,12.66
2020-09-28 21:00,32.541,24.557,38.062,12.65
2020-09-28 22:00,32.542,24.572,37.999,12.58
2020-09-28 23:00,32.598,24.617,38.048,12.57
2020-09-29 00:00,32.588,24.608,38.047,12.58
2020-09-29 01:00,32.498,24.516,38.057,12.69
2020-09-29 02:00,32.533,24.563,37.999,12.59
2020-09-29 03:00,32.533,24.573,37.949,12.53
2020-09-29 04:00,32.482,24.518,37.970,12.62
2020-09-29 05:00,32.475,24.508,37.986,12.64
2020-09-29 06:00,32.489,24.529,37.951,12.59
2020-09-29 07:00,32.497,24.535,37.961,12.59
2020-09-29 08:00,32.524,24.576,37.893,12.48
2020-09-29 09:00,32.508,24.532,38.025,12.65
2020-09-29 10:00,32.531,24.563,37.989,12.58
2020-09-29 11:00,32.536,24.579,37.936,12.52
2020-09-29 12:00,32.530,24.578,37.914,12.50
2020-09-29 13:00,32.539,24.586,37.919,12.49
2020-09-29 14:00,32.611,24.624,38.076,12.58
2020-09-29 15:00,32.592,24.623,37.990,12.51
2020-09-29 16:00,32.643,24.632,38.192,12.67
2020-09-29 17:00,32.675,24.664,38.191,12.64
2020-09-29 18:00,32.571,24.566,38.159,12.72
2020-09-29 19:00,32.612,24.593,38.228,12.75
2020-09-29 20:00,32.641,24.634,38.170,12.65
2020-09-29 21:00,32.668,24.638,38.279,12.74
2020-09-29 22:00,32.697,24.689,38.176,12.59
2020-09-29 23:00,32.705,24.729,38.024,12.42
2020-09-30 00:00,32.741,24.775,37.972,12.32
2020-09-30 01:00,32.710,24.731,38.036,12.43
2020-09-30 02:00,32.661,24.683,38.034,12.48
2020-09-30 03:00,32.572,24.558,38.203,12.77
2020-09-30 04:00,32.556,24.535,38.239,12.83
2020-09-30 05:00,32.585,24.622,37.962,12.49
2020-09-30 06:00,32.677,24.694,38.058,12.49
2020-09-30 07:00,32.662,24.681,38.049,12.50
2020-09-30 08:00,32.702,24.707,38.115,12.52
2020-09-30 09:00,32.666,24.679,38.072,12.52
2020-09-30 10:00,32.658,24.687,38.000,12.45
2020-09-30 11:00,32.682,24.709,38.008,12.43
2020-09-30 12:00,32.704,24.735,37.992,12.38
2020-09-30 13:00,32.727,24.766,37.952,12.31
2020-09-30 14:00,32.639,24.523,38.682,13.22
2020-09-30 15:00,32.670,24.583,38.546,13.03
2020-09-30 16:00,32.707,24.656,38.376,12.80
2020-09-30 17:00,32.685,24.621,38.436,12.89
2020-09-30 18:00,32.690,24.607,38.525,12.99
2020-09-30 19:00,32.659,24.560,38.601,13.10
2020-09-30 20:00,32.638,24.531,38.639,13.17
2020-09-30 21:00,32.640,24.551,38.558,13.08
2020-09-30 22:00,32.630,24.554,38.495,13.02
2020-09-30 23:00,32.639,24.578,38.420,12.93
2020-10-01 00:00,32.641,24.608,38.290,12.78
2020-10-01 01:00,32.675,24.697,38.032,12.46
2020-10-01 02:00,32.706,24.745,37.950,12.34
2020-10-01 03:00,32.775,24.835,37.848,12.14
2020-10-01 04:00,32.721,24.774,37.885,12.25
2020-10-01 05:00,32.644,24.626,38.224,12.71
2020-10-01 06:00,32.615,24.547,38.454,12.99
2020-10-01 07:00,32.568,24.487,38.515,13.12
2020-10-01 08:00,32.576,24.489,38.546,13.14
2020-10-01 09:00,32.584,24.495,38.554,13.14
2020-10-01 10:00,32.606,24.509,38.589,13.15
2020-10-01 11:00,32.631,24.558,38.479,13.00
2020-10-01 12:00,32.620,24.530,38.559,13.10
2020-10-01 13:00,32.643,24.585,38.410,12.91
2020-10-01 14:00,32.686,24.670,38.209,12.64
2020-10-01 15:00,32.626,24.551,38.488,13.02
2020-10-01 16:00,32.641,24.586,38.397,12.90
2020-10-01 17:00,32.624,24.552,38.475,13.01
2020-10-01 18:00,32.619,24.560,38.414,12.95
2020-10-01 19:00,32.631,24.597,38.294,12.80
2020-10-01 20:00,32.600,24.580,38.234,12.77
2020-10-01 21:00,32.575,24.560,38.209,12.77
2020-10-01 22:00,32.603,24.610,38.105,12.62
2020-10-01 23:00,32.694,24.621,38.478,12.93
2020-10-02 00:00,32.667,24.558,38.644,13.14
2020-10-02 01:00,32.652,24.543,38.647,13.16
2020-10-02 02:00,32.707,24.632,38.492,12.93
2020-10-02 03:00,32.638,24.529,38.647,13.18
2020-10-02 04:00,32.646,24.528,38.688,13.21
2020-10-02 05:00,32.609,24.508,38.608,13.17
2020-10-02 06:00,32.646,24.517,38.741,13.27
2020-10-02 07:00,32.561,24.455,38.628,13.25
2020-10-02 08:00,32.662,24.560,38.613,13.12
2020-10-02 09:00,32.675,24.574,38.610,13.10
2020-10-02 10:00,32.656,24.551,38.629,13.14
2020-10-02 11:00,32.676,24.590,38.539,13.02
2020-10-02 12:00,32.731,24.697,38.295,12.69
2020-10-02 13:00,32.759,24.723,38.306,12.67
2020-10-02 14:00,32.795,24.802,38.103,12.40
2020-10-02 15:00,32.781,24.775,38.161,12.48
2020-10-02 16:00,32.569,24.492,38.502,13.10
2020-10-02 17:00,32.636,24.535,38.609,13.14
2020-10-02 18:00,32.654,24.549,38.627,13.14
2020-10-02 19:00,32.628,24.487,38.791,13.35
2020-10-02 20:00,32.623,24.486,38.773,13.33
2020-10-02 21:00,32.642,24.482,38.878,13.43
2020-10-02 22:00,32.650,24.517,38.755,13.28
2020-10-02 23:00,32.647,24.522,38.719,13.25
2020-10-03 00:00,32.648,24.527,38.701,13.23
2020-10-03 01:00,32.710,24.638,38.478,12.91
2020-10-03 02:00,32.685,24.621,38.440,12.90
2020-10-03 03:00,32.750,24.871,37.554,11.85
2020-10-03 04:00,32.760,24.915,37.382,11.65
2020-10-03 05:00,32.724,24.777,37.882,12.24
2020-10-03 06:00,32.690,24.679,38.191,12.62
2020-10-03 07:00,32.429,24.361,38.455,13.21
2020-10-03 08:00,32.445,24.383,38.428,13.16
2020-10-03 09:00,32.499,24.427,38.475,13.15
2020-10-03 10:00,32.526,24.427,38.599,13.26
2020-10-03 11:00,32.642,24.547,38.584,13.11
2020-10-03 12:00,32.513,24.373,38.784,13.48
2020-10-03 13:00,32.568,24.446,38.704,13.32
2020-10-03 14:00,32.653,24.567,38.542,13.05
2020-10-03 15:00,32.688,24.651,38.309,12.75
2020-10-03 16:00,32.711,24.687,38.248,12.66
2020-10-03 17:00,32.663,24.623,38.326,12.80
2020-10-03 18:00,32.638,24.570,38.456,12.97
2020-10-03 19:00,32.655,24.620,38.305,12.78
2020-10-03 20:00,32.644,24.620,38.250,12.74
2020-10-03 21:00,32.645,24.668,38.028,12.49
2020-10-03 22:00,32.638,24.636,38.145,12.63
2020-10-03 23:00,32.601,24.624,38.034,12.55
2020-10-04 00:00,32.607,24.599,38.176,12.70
2020-10-04 01:00,32.552,24.476,38.491,13.11
2020-10-04 02:00,32.572,24.545,38.266,12.84
2020-10-04 03:00,32.629,24.585,38.347,12.86
2020-10-04 04:00,32.705,24.645,38.417,12.85
2020-10-04 05:00,32.531,24.352,38.964,13.65
2020-10-04 06:00,32.529,24.352,38.955,13.64
2020-10-04 07:00,32.520,24.341,38.962,13.66
2020-10-04 08:00,32.518,24.338,38.965,13.67
2020-10-04 09:00,32.502,24.320,38.973,13.70
2020-10-04 10:00,32.567,24.425,38.798,13.43
2020-10-04 11:00,32.615,24.548,38.449,12.99
2020-10-04 12:00,32.607,24.538,38.461,13.01
2020-10-04 13:00,32.765,24.752,38.194,12.54
2020-10-04 14:00,32.595,24.565,38.280,12.83
2020-10-04 15:00,32.613,24.671,37.867,12.35
2020-10-04 16:00,32.588,24.461,38.727,13.33
2020-10-04 17:00,32.542,24.486,38.398,13.02
2020-10-04 18:00,32.556,24.530,38.261,12.85
2020-10-04 19:00,32.453,24.377,38.491,13.22
2020-10-04 20:00,32.524,24.383,38.789,13.47
2020-10-04 21:00,32.547,24.421,38.722,13.37
2020-10-04 22:00,32.567,24.447,38.695,13.32
2020-10-04 23:00,32.559,24.440,38.687,13.32
2020-10-05 00:00,32.630,24.528,38.610,13.15
2020-10-05 01:00,32.582,24.636,37.880,12.40
2020-10-05 02:00,32.542,24.599,37.869,12.44
2020-10-05 03:00,32.593,24.642,37.909,12.42
2020-10-05 04:00,32.554,24.608,37.883,12.44
2020-10-05 05:00,32.535,24.389,38.810,13.48
2020-10-05 06:00,32.503,24.409,38.575,13.26
2020-10-05 07:00,32.634,24.586,38.365,12.87
2020-10-05 08:00,32.459,24.390,38.460,13.18
2020-10-05 09:00,32.549,24.469,38.511,13.13
2020-10-05 10:00,32.593,24.511,38.522,13.09
2020-10-05 11:00,32.502,24.348,38.850,13.56
2020-10-05 12:00,32.579,24.429,38.830,13.45
2020-10-05 13:00,32.529,24.399,38.742,13.41
2020-10-05 14:00,32.532,24.465,38.453,13.09
2020-10-05 15:00,32.541,24.565,38.025,12.61
2020-10-05 16:00,32.626,24.625,38.139,12.64
2020-10-05 17:00,32.433,24.419,38.206,12.93
2020-10-05 18:00,32.673,24.676,38.123,12.56
2020-10-05 19:00,32.660,24.658,38.149,12.61
2020-10-05 20:00,32.361,24.234,38.716,13.58
2020-10-05 21:00,32.284,24.068,39.111,14.11
2020-10-05 22:00,32.507,24.425,38.519,13.19
2020-10-05 23:00,32.435,24.345,38.555,13.32
2020-10-06 00:00,32.651,24.648,38.150,12.62
2020-10-06 01:00,32.650,24.584,38.447,12.95
2020-10-06 02:00,32.572,24.510,38.428,13.02
2020-10-06 03:00,32.603,24.541,38.426,12.98
2020-10-06 04:00,32.612,24.541,38.469,13.01
2020-10-06 05:00,32.484,24.421,38.433,13.12
2020-10-06 06:00,32.590,24.501,38.554,13.13
2020-10-06 07:00,32.321,24.187,38.748,13.66
2020-10-06 08:00,32.326,24.113,39.100,14.04
2020-10-06 09:00,32.288,24.132,38.843,13.81
2020-10-06 10:00,32.386,24.291,38.574,13.39
2020-10-06 11:00,32.450,24.376,38.481,13.22
2020-10-06 12:00,32.467,24.396,38.470,13.18
2020-10-06 13:00,32.475,24.413,38.425,13.13
2020-10-06 14:00,32.474,24.412,38.428,13.13
2020-10-06 15:00,32.492,24.432,38.416,13.10
2020-10-06 16:00,32.634,24.605,38.272,12.77
2020-10-06 17:00,32.367,24.356,38.191,12.99
2020-10-06 18:00,32.301,24.201,38.594,13.52
2020-10-06 19:00,32.330,24.309,38.235,13.09
2020-10-06 20:00,32.357,24.368,38.086,12.89
2020-10-06 21:00,32.340,24.319,38.235,13.07
2020-10-06 22:00,32.345,24.263,38.515,13.38
2020-10-06 23:00,32.331,24.271,38.414,13.28
2020-10-07 00:00,32.318,24.314,38.158,13.01
2020-10-07 01:00,32.320,24.213,38.627,13.53
2020-10-07 02:00,32.365,24.337,38.267,13.08
2020-10-07 03:00,32.480,24.492,38.083,12.74
2020-10-07 04:00,32.354,24.333,38.233,13.06
2020-10-07 05:00,32.499,24.499,38.138,12.78
2020-10-07 06:00,32.411,24.239,38.923,13.75
2020-10-07 07:00,32.445,24.434,38.188,12.90
2020-10-07 08:00,32.427,24.402,38.256,13.00
2020-10-07 09:00,32.466,24.420,38.351,13.05
2020-10-07 10:00,32.536,24.442,38.574,13.22
2020-10-07 11:00,32.574,24.468,38.630,13.24
2020-10-07 12:00,32.588,24.490,38.593,13.18
2020-10-07 13:00,32.572,24.435,38.769,13.39
2020-10-07 14:00,32.602,24.445,38.864,13.46
2020-10-07 15:00,32.586,24.417,38.917,13.54
2020-10-07 16:00,32.611,24.496,38.672,13.24
2020-10-07 17:00,32.580,24.450,38.741,13.35
2020-10-07 18:00,32.602,24.485,38.682,13.26
2020-10-07 19:00,32.454,24.269,38.984,13.76
2020-10-07 20:00,32.492,24.307,38.988,13.72
2020-10-07 21:00,32.461,24.243,39.133,13.92
2020-10-07 22:00,32.498,24.279,39.136,13.88
2020-10-07 23:00,32.386,24.172,39.110,13.98
2020-10-08 00:00,32.393,24.182,39.099,13.96
2020-10-08 01:00,32.500,24.322,38.955,13.68
2020-10-08 02:00,32.605,24.475,38.740,13.32
2020-10-08 03:00,32.655,24.550,38.632,13.14
2020-10-08 04:00,32.688,24.606,38.521,12.98